Preview of NWS' New Version of Forecast
This preview is not operational and should not be used for support decisions.

Regional Weather Roundup (RWR)

Issued by National Weather Service (NWS)

                            
000
ASUS45 KBOI 202110
RWRID 

IDAHO REGIONAL WEATHER ROUNDUP
NATIONAL WEATHER SERVICE BOISE ID
200 PM MST WED FEB 20 2019

NOTE: "FAIR" INDICATES FEW OR NO CLOUDS BELOW 12000 FEET
WITH NO SIGNIFICANT WEATHER AND/OR OBSTRUCTIONS TO VISIBILITY

IDZ012-014-202200-
SOUTHWEST IDAHO

  
CITY           SKY/WX    TMP DP  RH WIND       PRES   REMARKS
BOISE          LGT SNOW  31  28  89 NW9       29.67F FOG     WCI  23  
CALDWELL       CLOUDY    34  28  79 CALM      29.69F                  
MOUNTAIN HOME  LGT SNOW  32  32 100 CALM      29.67F VSB 1            
$$

IDZ016-017-202200-
SOUTHCENTRAL IDAHO

  
CITY           SKY/WX    TMP DP  RH WIND       PRES   REMARKS
BURLEY         FLURRIES  29  24  82 SW5       29.62F WCI  24          
JEROME         PTSUNNY   30  24  78 NE10      29.64F WCI  21          
TWIN FALLS     CLOUDY    32  21  64 NE3       29.63F                  
$$

IDZ019>023-202200-
SOUTHEAST IDAHO

  
CITY           SKY/WX    TMP DP  RH WIND       PRES   REMARKS
IDAHO FALLS    CLOUDY    19  13  77 CALM      29.65F                  
POCATELLO      LGT SNOW  23  18  81 NW5       29.65F WCI  17          
REXBURG        LGT SNOW  18  13  80 SW7       29.63F WCI   9          
$$

IDZ006-010-011-018-031-032-202200-
CENTRAL IDAHO MOUNTAINS

  
CITY           SKY/WX    TMP DP  RH WIND       PRES   REMARKS
MCCALL         LGT SNOW  23  19  85 S3        29.55F FOG              
HAILEY         CLOUDY    19  14  79 SE12      29.60S WCI   7          
STANLEY          N/A     21  10  62 N3        29.52F                  
SALMON         CLOUDY    29  18  63 CALM      29.62F                  
CHALLIS        CLOUDY    26  14  60 NW3       29.56F                  
$$

IDZ002-004-006-007-026-202200-
NORTHERN IDAHO

  
CITY           SKY/WX    TMP DP  RH WIND       PRES   REMARKS
LEWISTON       LGT SNOW  30  26  85 W3        29.77R FOG              
LOWELL           N/A     36  30  79 VRB5      29.71F WCI  32          
COEUR D'ALENE  PTSUNNY   29  20  69 NE16      29.74S WCI  17          
MULLAN PASS    LGT SNOW  16  12  84 CALM      29.55R FOG              
$$